Location: Detroit
(42.3310°N, 83.0460°W)
Time: 07:51:56
(UTC-04:00)

Explorer 11/Cluster Stage 4 - Pass Details

Date: 08 February 2023
Orbit: 466 x 1241 km, 28.8° (Epoch: 02 April)

Event Time Altitude Azimuth Distance (km) Brightness Sun altitude
Exits shadow 05:34:22 22° 216° (SW) 2,242 8.5 -23.3°
Maximum altitude 05:37:23 29° 180° (S) 2,012 8.6 -22.7°
Drops below altitude 10° 05:44:04 10° 125° (SE) 3,193 10.5 -21.5°
Sets 05:47:26 0° 115° (ESE) 4,168 11.5 -20.8°
